• In Kazakhstan
  • List of Countries
  • For 7 days
  • Water Temperature
  • Weather Map
  • News
  • Weather Widgets
  • user-avatar
    Login

    Hourly Weather Macerata

    Today, 30 May, Saturday

    Time Temperature Precipitation Wind Pressure Humidity
    00:00 +11°C° 0.4 mm 1 mps 737 mmHg 96%
    01:00 +11°C° 0.4 mm 1 mps 737 mmHg 95%
    02:00 +11°C° 0.3 mm 1 mps 736 mmHg 94%
    03:00 +11°C° 0.3 mm 1 mps 736 mmHg 93%
    04:00 +11°C° 0.3 mm 1 mps 736 mmHg 92%
    05:00 +12°C° 0.1 mm 1 mps 736 mmHg 90%
    06:00 +13°C° 0.1 mm 1 mps 736 mmHg 88%
    07:00 +13°C° 0.1 mm 1 mps 736 mmHg 86%
    08:00 +14°C° 0.3 mm 1 mps 736 mmHg 83%
    09:00 +15°C° 0.3 mm 2 mps 736 mmHg 81%
    10:00 +16°C° 0.3 mm 2 mps 736 mmHg 78%
    11:00 +16°C° 0.5 mm 2 mps 736 mmHg 76%
    12:00 +17°C° 0.5 mm 2 mps 736 mmHg 74%
    13:00 +17°C° 0.5 mm 2 mps 736 mmHg 72%
    14:00 +18°C° 0.2 mm 2 mps 735 mmHg 70%
    15:00 +18°C° 0.2 mm 2 mps 735 mmHg 68%
    16:00 +18°C° 0.2 mm 2 mps 735 mmHg 66%
    17:00 +17°C° 0 mm 2 mps 735 mmHg 71%
    18:00 +16°C° 0 mm 1 mps 735 mmHg 75%
    19:00 +15°C° 0 mm 1 mps 734 mmHg 80%
    20:00 +14°C° 0 mm 1 mps 735 mmHg 82%
    21:00 +13°C° 0 mm 1 mps 735 mmHg 83%
    22:00 +12°C° 0 mm 1 mps 735 mmHg 85%
    23:00 +12°C° 0 mm 1 mps 735 mmHg 86%

    Tomorrow, 31 May, Sunday

    Time Temperature Precipitation Wind Pressure Humidity
    00:00 +11°C° 0 mm 1 mps 735 mmHg 86%
    01:00 +11°C° 0 mm 1 mps 735 mmHg 86%
    02:00 +11°C° 0 mm 1 mps 735 mmHg 86%
    03:00 +11°C° 0 mm 1 mps 735 mmHg 86%
    04:00 +11°C° 0 mm 1 mps 735 mmHg 86%
    05:00 +12°C° 0 mm 1 mps 735 mmHg 83%
    06:00 +14°C° 0 mm 1 mps 736 mmHg 80%
    07:00 +15°C° 0 mm 1 mps 736 mmHg 76%
    08:00 +16°C° 0 mm 1 mps 736 mmHg 73%
    09:00 +18°C° 0 mm 1 mps 736 mmHg 69%
    10:00 +18°C° 0 mm 2 mps 736 mmHg 65%
    11:00 +19°C° 0.3 mm 2 mps 736 mmHg 67%
    12:00 +19°C° 0.3 mm 2 mps 736 mmHg 68%
    13:00 +19°C° 0.3 mm 2 mps 736 mmHg 70%
    14:00 +19°C° 0.4 mm 2 mps 736 mmHg 69%
    15:00 +19°C° 0.4 mm 2 mps 735 mmHg 69%
    16:00 +19°C° 0.4 mm 2 mps 735 mmHg 69%
    17:00 +19°C° 0.1 mm 1 mps 735 mmHg 73%
    18:00 +18°C° 0.1 mm 1 mps 735 mmHg 77%
    19:00 +15°C° 0.1 mm 0 mps 735 mmHg 81%
    20:00 +15°C° 0.1 mm 1 mps 735 mmHg 82%
    21:00 +14°C° 0.1 mm 1 mps 735 mmHg 83%
    22:00 +13°C° 0.1 mm 1 mps 736 mmHg 85%
    23:00 +13°C° 0 mm 1 mps 736 mmHg 86%

    Day after tomorrow, 1 June, Monday

    Time Temperature Precipitation Wind Pressure Humidity
    00:00 +13°C° 0 mm 1 mps 736 mmHg 87%
    01:00 +12°C° 0 mm 2 mps 736 mmHg 88%
    02:00 +12°C° 0 mm 2 mps 736 mmHg 87%
    03:00 +12°C° 0 mm 2 mps 735 mmHg 86%
    04:00 +12°C° 0 mm 2 mps 735 mmHg 85%
    05:00 +13°C° 0 mm 2 mps 736 mmHg 81%
    06:00 +15°C° 0 mm 2 mps 736 mmHg 76%
    07:00 +16°C° 0 mm 2 mps 736 mmHg 71%
    08:00 +17°C° 0 mm 2 mps 736 mmHg 68%
    09:00 +18°C° 0 mm 3 mps 736 mmHg 65%
    10:00 +19°C° 0 mm 3 mps 737 mmHg 63%
    11:00 +20°C° 0 mm 3 mps 737 mmHg 61%
    12:00 +20°C° 0 mm 3 mps 737 mmHg 60%
    13:00 +21°C° 0 mm 3 mps 737 mmHg 58%
    14:00 +20°C° 0 mm 3 mps 736 mmHg 58%
    15:00 +20°C° 0 mm 3 mps 736 mmHg 57%
    16:00 +20°C° 0 mm 3 mps 736 mmHg 57%
    17:00 +19°C° 0 mm 3 mps 736 mmHg 63%
    18:00 +18°C° 0 mm 2 mps 736 mmHg 68%
    19:00 +17°C° 0 mm 2 mps 735 mmHg 74%
    20:00 +16°C° 0 mm 2 mps 736 mmHg 76%
    21:00 +14°C° 0 mm 2 mps 736 mmHg 78%
    22:00 +13°C° 0 mm 2 mps 736 mmHg 80%
    23:00 +13°C° 0 mm 2 mps 736 mmHg 79%

    2 June, Tuesday

    Time Temperature Precipitation Wind Pressure Humidity
    00:00 +13°C° 0 mm 2 mps 736 mmHg 79%
    01:00 +13°C° 0 mm 2 mps 736 mmHg 79%
    02:00 +13°C° 0 mm 2 mps 735 mmHg 79%
    03:00 +12°C° 0 mm 2 mps 735 mmHg 80%
    04:00 +12°C° 0 mm 2 mps 735 mmHg 80%
    05:00 +14°C° 0 mm 1 mps 735 mmHg 77%
    06:00 +15°C° 0 mm 1 mps 735 mmHg 73%
    07:00 +18°C° 0 mm 1 mps 735 mmHg 69%
    08:00 +19°C° 0 mm 1 mps 736 mmHg 65%
    09:00 +20°C° 0 mm 1 mps 736 mmHg 62%
    10:00 +20°C° 0 mm 2 mps 736 mmHg 58%
    11:00 +20°C° 0.1 mm 2 mps 736 mmHg 59%
    12:00 +20°C° 0.1 mm 2 mps 735 mmHg 61%
    13:00 +21°C° 0.1 mm 3 mps 735 mmHg 62%
    14:00 +20°C° 0.2 mm 2 mps 735 mmHg 63%
    15:00 +20°C° 0.2 mm 2 mps 734 mmHg 63%
    16:00 +20°C° 0.2 mm 2 mps 734 mmHg 63%
    17:00 +19°C° 0 mm 2 mps 734 mmHg 67%
    18:00 +19°C° 0 mm 1 mps 733 mmHg 71%
    19:00 +16°C° 0 mm 0 mps 733 mmHg 75%
    20:00 +16°C° 0 mm 1 mps 733 mmHg 76%
    21:00 +15°C° 0 mm 1 mps 734 mmHg 78%
    22:00 +14°C° 0 mm 1 mps 734 mmHg 80%
    23:00 +14°C° 0 mm 1 mps 733 mmHg 79%

    3 June, Wednesday

    Time Temperature Precipitation Wind Pressure Humidity
    00:00 +14°C° 0 mm 1 mps 733 mmHg 78%
    01:00 +13°C° 0 mm 2 mps 733 mmHg 77%
    02:00 +13°C° 0 mm 1 mps 732 mmHg 74%
    03:00 +13°C° 0 mm 1 mps 732 mmHg 71%
    04:00 +13°C° 0 mm 1 mps 732 mmHg 68%
    05:00 +14°C° 0 mm 2 mps 732 mmHg 67%
    06:00 +16°C° 0 mm 2 mps 732 mmHg 66%
    07:00 +17°C° 0 mm 2 mps 732 mmHg 65%
    08:00 +19°C° 0 mm 2 mps 732 mmHg 61%
    09:00 +20°C° 0 mm 2 mps 732 mmHg 58%
    10:00 +23°C° 0 mm 2 mps 732 mmHg 54%
    11:00 +22°C° 0.1 mm 3 mps 732 mmHg 56%
    12:00 +22°C° 0.1 mm 3 mps 732 mmHg 57%
    13:00 +24°C° 0.1 mm 3 mps 732 mmHg 59%
    14:00 +22°C° 1 mm 3 mps 731 mmHg 62%
    15:00 +22°C° 1 mm 3 mps 731 mmHg 65%
    16:00 +21°C° 1 mm 3 mps 731 mmHg 68%
    17:00 +20°C° 0.6 mm 3 mps 731 mmHg 73%
    18:00 +19°C° 0.6 mm 3 mps 730 mmHg 79%
    19:00 +18°C° 0.6 mm 3 mps 730 mmHg 84%
    20:00 +17°C° 0.1 mm 3 mps 731 mmHg 84%
    21:00 +16°C° 0.1 mm 3 mps 731 mmHg 85%
    22:00 +16°C° 0.1 mm 3 mps 731 mmHg 85%
    23:00 +15°C° 0 mm 2 mps 731 mmHg 85%

    4 June, Thursday

    Time Temperature Precipitation Wind Pressure Humidity
    00:00 +15°C° 0 mm 2 mps 731 mmHg 85%
    01:00 +15°C° 0 mm 2 mps 731 mmHg 84%
    02:00 +14°C° 0 mm 2 mps 730 mmHg 83%
    03:00 +14°C° 0 mm 2 mps 730 mmHg 82%
    04:00 +14°C° 0 mm 2 mps 730 mmHg 81%
    05:00 +15°C° 0 mm 2 mps 730 mmHg 79%
    06:00 +16°C° 0 mm 2 mps 731 mmHg 76%
    07:00 +18°C° 0 mm 2 mps 731 mmHg 74%
    08:00 +19°C° 0 mm 2 mps 731 mmHg 67%
    09:00 +21°C° 0 mm 2 mps 731 mmHg 61%
    10:00 +24°C° 0 mm 2 mps 732 mmHg 54%
    11:00 +24°C° 0 mm 2 mps 731 mmHg 57%
    12:00 +24°C° 0 mm 2 mps 731 mmHg 59%
    13:00 +24°C° 0 mm 3 mps 731 mmHg 62%
    14:00 +24°C° 0.3 mm 3 mps 731 mmHg 63%
    15:00 +24°C° 0.3 mm 3 mps 731 mmHg 64%
    16:00 +23°C° 0.3 mm 4 mps 731 mmHg 65%
    17:00 +22°C° 0.2 mm 3 mps 731 mmHg 71%
    18:00 +21°C° 0.2 mm 3 mps 731 mmHg 77%
    19:00 +20°C° 0.2 mm 3 mps 731 mmHg 82%
    20:00 +19°C° 0 mm 3 mps 731 mmHg 83%
    21:00 +18°C° 0 mm 3 mps 731 mmHg 84%
    22:00 +16°C° 0 mm 2 mps 731 mmHg 84%
    23:00 +16°C° 0 mm 2 mps 731 mmHg 82%
    Show more